Location: Makakahi
(40.6833°S, 175.6000°E)
Time: 05:38:32
(UTC+00:00)

DMSP F15 (USA 147) - Pass Details

Date: 12 December 2024
Orbit: 827 x 842 km, 99.1° (Epoch: 18 January)

Event Time Altitude Azimuth Distance (km) Brightness Sun altitude
Rises 09:30:24 0° 188° (S) 3,436 9.4 -16.0°
Reaches altitude 10° 09:34:51 10° 221° (SW) 2,491 9.0 -16.5°
Maximum altitude 09:36:14 11° 236° (SW) 2,421 8.7 -16.7°
Drops below altitude 10° 09:37:36 10° 250° (WSW) 2,485 8.5 -16.9°
Sets 09:42:02 0° 285° (WNW) 3,408 8.6 -17.4°
